Tracking 19245 objects as of 18-Aug-2018
HD Live streaming from Space Station
objects crossing your sky now

FENGYUN 1C DEB

Track FENGYUN 1C DEB now!
10-day predictions


NORAD ID: 29963
Int'l Code: 1999-025KM
Perigee: 783.9 km
Apogee: 862.6 km
Inclination: 99.0 °
Period: 101.2 minutes
Semi major axis: 7194 km
RCS: 0.02 m2 (small)
Launch date: May 10, 1999
Source: People's Republic of China (PRC)
Launch site: Taiyaun Space Center, China (TSC)

Note: This is SATELLITE DEBRIS
aabbcc
Your satellite tracking list
Your tracking list is empty




NASA's NSSDC Master Catalog

Two Line Element Set (TLE):
1 29963U 99025KM  18229.83158446  .00000279  00000-0  14284-3 0  9995
2 29963  98.9722 354.4135 0054727  61.6774  90.8525 14.22732191600882
Source of the keplerian elements: AFSPC